DW0805 Ramloese DK current weather conditions

sailwx.info

Wind from 293 at 6 knots gusting 10

Air temperature 7.8° C
Dewpoint 7.0° C

Last reported at 2016-Dec-09 16:45 UTC.
Time now 2016-Dec-09 23:12 UTC

Location: N 56°01' E 012°05'.
View on Google Maps.

See reports from other nearby stations

  
Tides and Currents Weather Stations Pressure Air Temp Water Temp Dewpoint Dewpoint Depression Visibility Wind Speed Wind Dir Waves Ship Positions
date/time (UTC)wind fromknots sea level pressurealtimeterstation pressurevisibilityair tempwater tempwave heightnotes
2016-Dec-09 16:45 293 6 gusting 10 7.8
2016-Dec-09 16:25 287 11 gusting 19 7.8
2016-Dec-09 08:35 292 10 gusting 17 7.8
2016-Dec-09 08:25 290 9 gusting 18 7.8
2016-Dec-09 08:15 325 10 gusting 15 7.8
2016-Dec-09 08:05 313 11 gusting 19 7.8
2016-Dec-09 07:45 271 12 gusting 18 7.8
2016-Dec-09 07:35 277 10 gusting 18 7.8
2016-Dec-09 07:25 294 11 gusting 17 7.8
2016-Dec-09 07:05 289 11 gusting 18 7.2
2016-Dec-09 06:55 290 9 gusting 17 7.2
2016-Dec-09 06:35 276 8 gusting 17 7.2
2016-Dec-09 05:55 274 7 gusting 13 7.8
2016-Dec-09 05:45 262 8 gusting 17 7.8
2016-Dec-09 05:25 268 7 gusting 14 7.8
2016-Dec-09 05:15 264 8 gusting 13 7.8
2016-Dec-09 04:55 276 9 gusting 12 7.2
2016-Dec-09 04:45 278 8 gusting 14 7.2
2016-Dec-09 04:35 279 8 gusting 15 7.2
2016-Dec-09 04:15 273 8 gusting 13 7.8
2016-Dec-09 04:05 284 9 gusting 17 7.8
2016-Dec-09 03:55 298 7 gusting 14 7.8
2016-Dec-09 03:35 276 7 gusting 14 7.8
2016-Dec-09 03:25 270 10 gusting 15 7.8
2016-Dec-09 03:15 268 8 gusting 14 7.8
2016-Dec-09 03:05 272 10 gusting 14 7.8
2016-Dec-09 02:45 279 7 gusting 14 7.8
2016-Dec-09 02:25 295 8 gusting 15 7.8
2016-Dec-09 02:05 287 9 gusting 17 7.8
2016-Dec-09 01:45 285 13 gusting 15 7.8
2016-Dec-09 01:35 290 7 gusting 17 7.8
2016-Dec-09 01:25 274 6 gusting 17 7.8
2016-Dec-09 01:15 269 6 gusting 19 7.8
2016-Dec-09 00:55 281 10 gusting 19 7.8
2016-Dec-09 00:45 278 7 gusting 15 7.8
2016-Dec-09 00:25 278 7 gusting 15 7.8
2016-Dec-09 00:15 279 8 gusting 18 7.8
2016-Dec-09 00:05 282 9 gusting 19 7.8
2016-Dec-08 23:55 272 9 gusting 15 7.8
2016-Dec-08 23:45 276 8 gusting 19 7.8
2016-Dec-08 23:25 281 11 gusting 18 8.3
2016-Dec-08 23:05 278 10 gusting 19 8.3
2016-Dec-08 22:55 289 8 gusting 19 8.3
2016-Dec-08 22:45 292 11 gusting 17 8.3
2016-Dec-08 22:35 269 10 gusting 22 8.3
2016-Dec-08 22:25 277 21 gusting 22 8.3
2016-Dec-08 22:15 283 11 gusting 17 8.3
2016-Dec-08 22:05 275 12 gusting 18 8.3
2016-Dec-08 21:45 276 7 gusting 17 8.3
2016-Dec-08 21:15 273 11 gusting 19 8.3
2016-Dec-08 21:05 275 8 gusting 17 8.3
2016-Dec-08 20:55 276 9 gusting 17 8.3
2016-Dec-08 20:45 274 10 gusting 18 8.3
2016-Dec-08 20:35 268 10 gusting 15 8.3
2016-Dec-08 20:25 272 12 gusting 17 8.3
2016-Dec-08 20:15 272 9 gusting 18 8.3
2016-Dec-08 20:05 278 7 gusting 13 8.3
2016-Dec-08 19:55 275 9 gusting 13 8.3
2016-Dec-08 19:45 258 11 gusting 14 8.9
2016-Dec-08 19:15 270 10 gusting 14 8.9
2016-Dec-08 19:05 272 8 gusting 14 8.9
2016-Dec-08 18:55 268 10 gusting 15 8.9
2016-Dec-08 18:45 266 10 gusting 17 8.9
2016-Dec-08 18:35 283 7 gusting 15 8.9
2016-Dec-08 18:25 270 9 gusting 19 9.4
2016-Dec-08 18:05 275 6 gusting 14 9.4
2016-Dec-08 17:55 267 11 gusting 17 9.4
2016-Dec-08 17:45 268 10 gusting 13 9.4
2016-Dec-08 17:35 274 7 gusting 11 9.4
2016-Dec-08 17:25 269 6 gusting 10 9.4
2016-Dec-08 17:15 272 6 gusting 13 9.4
2016-Dec-08 17:05 290 5 gusting 13 9.4
2016-Dec-08 16:45 264 8 gusting 14 9.4
2016-Dec-08 16:35 282 6 gusting 13 9.4
2016-Dec-08 16:27 272 7 gusting 13 9.4
2016-Dec-08 16:15 281 9 gusting 13 10.0
2016-Dec-08 16:05 272 9 gusting 15 10.0
2016-Dec-08 15:55 273 8 gusting 13 10.0
2016-Dec-08 15:35 284 10 gusting 14 10.0
2016-Dec-08 14:55 268 12 gusting 19 10.0
2016-Dec-08 14:45 269 10 gusting 18 10.0
2016-Dec-08 14:25 272 8 gusting 17 10.0
2016-Dec-08 13:55 278 9 gusting 14 10.0
2016-Dec-08 13:25 281 10 gusting 13 10.0
2016-Dec-08 13:15 287 9 gusting 15 10.0
2016-Dec-08 12:55 259 9 gusting 17 10.0
2016-Dec-08 12:45 284 10 gusting 15 10.0
2016-Dec-08 12:35 312 12 gusting 19 10.0
2016-Dec-08 12:25 315 8 gusting 17 10.0
2016-Dec-08 12:15 276 16 gusting 19 10.0
2016-Dec-08 12:05 261 8 gusting 17 10.0
2016-Dec-08 11:45 275 10 gusting 15 10.6
2016-Dec-08 11:35 275 10 gusting 17 10.6
2016-Dec-08 11:25 279 9 gusting 15 10.6
2016-Dec-08 11:15 270 11 gusting 19 10.6
2016-Dec-08 10:45 300 8 gusting 14 10.6
2016-Dec-08 10:35 264 7 gusting 13 10.6
2016-Dec-08 10:25 270 11 gusting 17 10.6
2016-Dec-08 10:15 268 9 gusting 15 10.6
2016-Dec-08 10:05 273 10 gusting 15 11.1
2016-Dec-08 09:45 277 10 gusting 18 11.1
2016-Dec-08 09:25 275 9 gusting 17 11.1
2016-Dec-08 09:15 315 12 gusting 19 11.1
2016-Dec-08 08:55 271 12 gusting 21 11.1
2016-Dec-08 08:35 289 13 gusting 19 11.1
2016-Dec-08 08:25 271 11.1
2016-Dec-08 08:15 272 11.1
2016-Dec-08 05:05 256 13 gusting 20 10.6
2016-Dec-08 04:55 261 10 gusting 18 10.6
2016-Dec-08 04:45 254 11 gusting 17 10.6
2016-Dec-08 04:35 254 11 gusting 19 10.6
2016-Dec-08 04:15 260 9 gusting 15 10.0
2016-Dec-08 04:05 254 10 gusting 19 10.6
2016-Dec-08 03:55 259 10 gusting 19 10.6
2016-Dec-08 03:35 283 12 gusting 21 10.6
2016-Dec-08 03:25 268 12 gusting 19 10.6
2016-Dec-08 03:05 252 12 gusting 19 10.6
2016-Dec-08 02:55 267 14 gusting 19 10.6
2016-Dec-08 02:45 270 15 gusting 22 10.6
2016-Dec-08 02:25 264 13 gusting 21 10.6
2016-Dec-08 02:15 277 14 gusting 20 10.0
2016-Dec-08 01:25 266 13 gusting 15 10.0
2016-Dec-08 01:05 266 10 gusting 18 10.0
2016-Dec-08 00:55 270 10 gusting 19 10.0
2016-Dec-08 00:45 254 9 gusting 14 10.0
2016-Dec-08 00:15 264 13 gusting 20 10.0
2016-Dec-08 00:05 269 15 gusting 20 10.0
2016-Dec-07 23:55 264 12 gusting 20 10.0
2016-Dec-07 23:45 269 10 gusting 19 9.4
2016-Dec-07 23:35 256 10 gusting 20 9.4
2016-Dec-07 23:25 260 10 gusting 19 9.4
2016-Dec-07 23:05 263 19 gusting 22 9.4